This demonstration page uses our WeatherBlox Daily Observations layout. Learn more.

Left ArrowRight Arrow

Hourly Observations for March 31, 2015

Temp ( °F °C ) Dew Point ( °F °C ) Humidity (%) Winds ( mph kmh ) Pressure ( in mb ) Visibility ( mi km ) Precip ( " mm )
12:16 am 00:16 Clear 50 10 21 -6 32 32 SSW 10 17 30.00 1016 10 16 N/A
12:36 am 00:36 Clear 48 9 21 -6 34 34 SSW 10 17 30.00 1016 10 16 N/A
12:55 am 00:55 Clear 48 9 21 -6 34 34 SSW 10 17 30.00 1016 10 16 N/A
1:16 am 01:16 Clear 48 9 21 -6 34 34 SSW 10 17 29.97 1015 10 16 N/A
1:35 am 01:35 Partly Cloudy 48 9 21 -6 34 34 SSW 9 15 29.97 1015 10 16 N/A
1:56 am 01:56 Clear 48 9 21 -6 34 34 SSW 14 22 29.94 1014 10 16 N/A
2:16 am 02:16 Clear 48 9 21 -6 34 34 SSW 12 19 29.94 1014 10 16 N/A
2:35 am 02:35 Clear 48 9 21 -6 34 34 SSW 10 17 29.94 1014 10 16 N/A
2:56 am 02:56 Clear 48 9 21 -6 34 34 SSW 9 15 29.91 1013 10 16 N/A
3:16 am 03:16 Clear 48 9 21 -6 34 34 SSW 12 19 29.91 1013 10 16 N/A
3:35 am 03:35 Clear 48 9 21 -6 34 34 SSW 9 15 29.88 1012 10 16 N/A
3:56 am 03:56 Clear 46 8 21 -6 37 37 SSW 10 17 29.88 1012 10 16 N/A
4:16 am 04:16 Clear 46 8 21 -6 37 37 SSW 10 17 29.85 1011 10 16 N/A
4:35 am 04:35 Clear 46 8 21 -6 37 37 SSW 10 17 29.85 1011 10 16 N/A
4:56 am 04:56 Clear 46 8 21 -6 37 37 SSW 10 17 29.85 1011 10 16 N/A
5:16 am 05:16 Clear 46 8 23 -5 40 40 SSW 10 17 29.83 1010 10 16 N/A
5:35 am 05:35 Clear 46 8 23 -5 40 40 SSW 12 19 29.83 1010 10 16 N/A
5:56 am 05:56 Clear 48 9 23 -5 37 37 SW 10 17 29.83 1010 10 16 N/A
6:16 am 06:16 Clear 50 10 23 -5 35 35 SW 14 22 29.80 1009 10 16 N/A
6:35 am 06:35 Clear 50 10 25 -4 37 37 SW 14 22 29.80 1009 10 16 N/A
6:56 am 06:56 Clear 50 10 25 -4 37 37 SW 15 24 29.77 1008 10 16 N/A
7:16 am 07:16 Clear 50 10 25 -4 37 37 WSW 18 30 29.77 1008 10 16 N/A
7:35 am 07:35 Sunny 50 10 27 -3 40 40 WSW 18 30 29.80 1009 10 16 N/A
7:56 am 07:56 Sunny 50 10 27 -3 40 40 WSW 18 30 29.80 1009 10 16 N/A
8:15 am 08:15 Sunny 50 10 28 -2 43 43 WSW 16 26 29.80 1009 10 16 N/A
8:36 am 08:36 Sunny 52 11 28 -2 41 41 W 16 26 29.80 1009 10 16 N/A
8:56 am 08:56 Sunny 54 12 27 -3 35 35 W 18 30 29.80 1009 10 16 N/A
9:15 am 09:15 Sunny 54 12 27 -3 35 35 W 18 30 29.80 1009 10 16 N/A
9:36 am 09:36 Sunny 55 13 27 -3 33 33 W 21 33 29.80 1009 10 16 N/A
9:56 am 09:56 Sunny 55 13 27 -3 33 33 WNW 18 30 29.80 1009 10 16 N/A
10:15 am 10:15 Sunny 57 14 25 -4 29 29 WNW 21 33 29.80 1009 10 16 N/A
10:36 am 10:36 Sunny 57 14 25 -4 29 29 WNW 21 33 29.80 1009 10 16 N/A
10:56 am 10:56 Sunny 59 15 25 -4 27 27 W 17 28 29.83 1010 10 16 N/A
11:15 am 11:15 Sunny 59 15 25 -4 27 27 WNW 17 28 29.83 1010 3 4 N/A
11:36 am 11:36 Mostly Cloudy 61 16 25 -4 25 25 WNW 17 28 29.83 1010 2 3 N/A
11:56 am 11:56 Sunny 61 16 25 -4 25 25 WNW 21 33 29.85 1011 3 4 N/A
12:15 pm 12:15 Sunny 63 17 23 -5 22 22 WNW 21 33 29.85 1011 2 3 N/A
12:36 pm 12:36 Sunny 61 16 25 -4 25 25 WNW 18 30 29.85 1011 3 4 N/A
12:55 pm 12:55 Sunny 61 16 25 -4 25 25 NW 17 28 29.85 1011 3 4 N/A
1:16 pm 13:16 Sunny 61 16 25 -4 25 25 NW 14 22 29.88 1012 3 4 N/A
1:36 pm 13:36 Partly Cloudy 61 16 25 -4 25 25 NW 15 24 29.88 1012 3 5 N/A
1:55 pm 13:55 Partly Cloudy 61 16 25 -4 25 25 NW 17 28 29.88 1012 7 11 N/A
2:16 pm 14:16 Sunny 61 16 27 -3 27 27 NW 18 30 29.88 1012 10 16 N/A
2:36 pm 14:36 Sunny 61 16 23 -5 23 23 WNW 22 35 29.88 1012 10 16 N/A
2:55 pm 14:55 Sunny 61 16 23 -5 23 23 NW 20 31 29.88 1012 10 16 N/A
3:16 pm 15:16 Sunny 61 16 23 -5 23 23 NW 18 30 29.91 1013 10 16 N/A
3:35 pm 15:35 Sunny 61 16 27 -3 27 27 NNW 18 30 29.91 1013 10 16 N/A
3:56 pm 15:56 Sunny 59 15 25 -4 27 27 NNW 18 30 29.91 1013 10 16 N/A
4:16 pm 16:16 Sunny 59 15 25 -4 27 27 NNW 20 31 29.91 1013 10 16 N/A
4:35 pm 16:35 Sunny 57 14 27 -3 31 31 NNW 16 26 29.91 1013 10 16 N/A
4:56 pm 16:56 Sunny 59 15 27 -3 29 29 NNW 20 31 29.91 1013 10 16 N/A
5:15 pm 17:15 Sunny 57 14 25 -4 29 29 NW 15 24 29.94 1014 10 16 N/A
5:36 pm 17:36 Sunny 57 14 27 -3 31 31 NNW 20 31 29.94 1014 10 16 N/A
5:56 pm 17:56 Sunny 57 14 25 -4 29 29 NNW 18 30 29.94 1014 10 16 N/A
6:15 pm 18:15 Sunny 55 13 23 -5 28 28 NW 15 24 29.94 1014 10 16 N/A
6:36 pm 18:36 Sunny 55 13 25 -4 31 31 NNW 14 22 29.97 1015 10 16 N/A
6:55 pm 18:55 Sunny 54 12 23 -5 30 30 NNW 14 22 29.97 1015 10 16 N/A
7:16 pm 19:16 Sunny 54 12 25 -4 33 33 N 14 22 29.97 1015 10 16 N/A
7:36 pm 19:36 Sunny 52 11 27 -3 38 38 N 9 15 30.00 1016 10 16 N/A
7:55 pm 19:55 Sunny 50 10 27 -3 40 40 N 8 13 30.00 1016 10 16 N/A
8:16 pm 20:16 Clear 48 9 28 -2 46 46 N 8 13 30.00 1016 10 16 N/A
8:36 pm 20:36 Clear 45 7 28 -2 53 53 N 6 9 30.00 1016 10 16 N/A
8:55 pm 20:55 Clear 45 7 28 -2 53 53 N 7 11 30.03 1017 10 16 N/A
9:16 pm 21:16 Clear 41 5 28 -2 61 61 NNE 3 6 30.03 1017 10 16 N/A
9:36 pm 21:36 Clear 43 6 28 -2 57 57 NNE 7 11 30.03 1017 10 16 N/A
9:55 pm 21:55 Clear 43 6 27 -3 53 53 NNE 6 9 30.03 1017 10 16 N/A
10:16 pm 22:16 Clear 39 4 28 -2 65 65 N N/A 30.03 1017 10 16 N/A
10:36 pm 22:36 Clear 37 3 28 -2 70 70 N N/A 30.03 1017 10 16 N/A
10:55 pm 22:55 Clear 39 4 30 -1 70 70 N N/A 30.03 1017 10 16 N/A
11:16 pm 23:16 Clear 41 5 30 -1 66 66 N N/A 30.06 1018 10 16 N/A
11:36 pm 23:36 Clear 39 4 28 -2 65 65 N N/A 30.06 1018 10 16 N/A
11:55 pm 23:55 Clear 37 3 28 -2 70 70 N N/A 30.09 1019 10 16 N/A

Powered by AerisWeather